Home > Time Zones > World Clock > Weather > Ghana > Accra > Past weeks

Flag for Ghana Weather past 2 weeks in Accra, Ghana

Now
86 °F

Partly sunny.


Feels Like: 93 °F
Forecast: 78 / 87 °F
Wind: 9 mph from Southwest

Location: Accra Airport

Current Time: Oct 25, 2014 at 11:28:55 AM

Latest Report: Oct 25, 2014 at 11:00 AM


Visibility: N/A

Pressure: 29.89 "Hg

Humidity: 66%

Dew point: 73 °F

Location of AccraLocation

Historic Weather in Accra — Graph

°F

Accra temperature yesterday

Maximum temperature yesterday: 82 °F (at 4:00 PM)
Minimum temperature yesterday: 77 °F (at 3:00 AM)
Average temperature yesterday: 79 °F

Past Weeks' High & Low Weather Summary

 TemperatureHumidityPressure
High86 °F (Oct 10, 10:52 AM)100% (Oct 12, 3:51 AM)30.01 "Hg (Oct 12, 3:51 AM)
Low73 °F (Oct 11, 1:00 PM)62% (Oct 23, 10:51 AM)29.80 "Hg (Oct 10, 3:00 PM)
Average80 °F84%29.90 "Hg
* Reported Oct 10 10:00 AM — Oct 25 10:00 AM, Accra, Weather by CustomWeather, © 2014

Note: Actual official high and low records may vary slightly from our data, if they occured in-between our weather recording intervals... More about our weather records

Advertising

Accra weather history for previous 24 hours

 ConditionsComfort  
Time TempWeatherWind HumidityBarometerVisibility
10:00 AM
Oct 25
84 °FPartly sunny.10 mph70%29.92 "HgN/A
9:00 AM81 °FPartly sunny.10 mph79%29.92 "HgN/A
8:00 AM81 °FPassing clouds.12 mph79%29.89 "HgN/A
7:00 AM77 °FSunny.9 mph89%29.89 "Hg10 mi
6:00 AM75 °FSunny.7 mph94%29.86 "Hg10 mi
5:00 AM77 °FClear.7 mph89%29.86 "Hg10 mi
4:00 AM77 °FClear.8 mph94%29.83 "Hg10 mi
3:00 AM77 °FClear.7 mph94%29.83 "Hg10 mi
1:00 AM77 °FClear.6 mph89%29.89 "Hg10 mi
12:00 AM79 °FPassing clouds.9 mph89%29.89 "HgN/A
11:00 PM
Oct 24
79 °FPassing clouds.8 mph89%29.92 "HgN/A
10:00 PM81 °FOvercast.10 mph84%29.92 "HgN/A
9:00 PM81 °FPassing clouds.12 mph84%29.89 "HgN/A
8:00 PM81 °FPassing clouds.13 mph84%29.89 "HgN/A
7:00 PM81 °FPassing clouds.13 mph84%29.86 "HgN/A
6:00 PM81 °FPassing clouds.14 mph84%29.83 "HgN/A
5:00 PM82 °FPassing clouds.13 mph79%29.83 "HgN/A
4:00 PM82 °FPassing clouds.14 mph79%29.83 "HgN/A
Weather by CustomWeather, © 2014

See weather overviewHow to use our weather pages